Simultaneous Nadir Overpasses (SNOs) Predictions

Prediction of SNOs between GOES-15 and METOP-A Satellite Orbit:

Table of predicted SNOs for the next 14.0 days since TLE Epoch: 5/2/2014
Index Date Time (GOES-15) GOES-15 Lat,Lon METOP-A Lat,Lon Distance(km) Time Diff (sec)
1 05/04/2014 06:29:47 0.04,-135.26 -0.04,-135.56 34.23 80
2 05/06/2014 18:30:41 -0.05,-135.23 -0.04,-135.12 12.29 80
3 05/09/2014 06:29:03 0.05,-135.16 0.14,-134.72 49.35 80
4 05/10/2014 18:45:16 -0.05,-135.14 0.85,-139.29 472.49 80
5 05/11/2014 18:27:17 -0.05,-135.11 -0.23,-134.28 93.88 80
6 05/13/2014 06:43:37 0.06,-135.05 -0.81,-138.87 436.33 80
7 05/14/2014 06:25:39 0.06,-135.01 0.33,-133.88 129.37 80
8 05/15/2014 18:41:51 -0.06,-134.98 0.71,-138.44 394.20 80
